Flag for Greenland Weather past 2 weeks in Qaanaaq, Greenland

Now
30 °F

Overcast.


Feels Like: 23 °F
Forecast: 14 / 22 °F
Wind: 7 mph from Northwest

Location: Thule A. B.

Current Time: Sep 21, 2014 at 5:02:13 PM

Latest Report: Sep 21, 2014 at 3:58 PM


Visibility: N/A

Pressure: 29.52 "Hg

Humidity: 80%

Dew point: 25 °F

Location of QaanaaqLocation

Historic Weather in Qaanaaq — Graph

°F

Qaanaaq temperature yesterday

Maximum temperature yesterday: 36 °F (at 5:58 AM)
Minimum temperature yesterday: 29 °F (at 10:58 PM)
Average temperature yesterday: 33 °F

Past Weeks' High & Low Weather Summary

 TemperatureHumidityPressure
High41 °F (Sep 8, 4:58 PM)100% (Sep 19, 7:00 PM)29.99 "Hg (Sep 19, 7:00 PM)
Low24 °F (Sep 15, 6:58 AM)39% (Sep 8, 5:58 PM)29.25 "Hg (Sep 13, 8:58 PM)
Average33 °F76%29.59 "Hg
* Reported Sep 6 4:58 PM — Sep 21 3:58 PM, Qaanaaq, Weather by CustomWeather, © 2014

Note: Actual official high and low records may vary slightly from our data, if they occured in-between our weather recording intervals... More about our weather records

Advertising

Qaanaaq weather history for previous 24 hours

 ConditionsComfort  
Time TempWeatherWind HumidityBarometerVisibility
3:58 PM
Sep 21
30 °FOvercast.7 mph80%29.52 "HgN/A
2:58 PM30 °FOvercast.7 mph80%29.54 "HgN/A
1:58 PM30 °FMostly cloudy.8 mph86%29.54 "HgN/A
12:58 PM30 °FOvercast.7 mph86%29.54 "HgN/A
11:58 AM32 °FOvercast.8 mph75%29.54 "HgN/A
10:58 AM32 °FOvercast.7 mph80%29.54 "HgN/A
9:58 AM30 °FOvercast.7 mph86%29.53 "HgN/A
8:58 AM30 °FOvercast.3 mph86%29.52 "HgN/A
7:58 AM32 °FOvercast.13 mph87%29.51 "HgN/A
6:58 AM32 °FMostly cloudy.10 mph80%29.49 "HgN/A
5:58 AM30 °FLow clouds.No wind86%29.48 "HgN/A
5:04 AM28 °FLow clouds.2 mph93%29.50 "HgN/A
3:58 AM28 °FOvercast.6 mph93%29.44 "HgN/A
2:58 AM30 °FOvercast.5 mph86%29.44 "HgN/A
1:58 AM28 °FOvercast.6 mph93%29.43 "HgN/A
12:58 AM30 °FOvercast.5 mph86%29.44 "HgN/A
11:58 PM
Sep 20
30 °FPassing clouds.3 mph86%29.44 "HgN/A
10:58 PM29 °FClear.6 mph90%29.46 "HgN/A
9:58 PM31 °FSunny.1 mph90%29.48 "HgN/A
8:58 PM30 °FScattered clouds.2 mph93%29.50 "HgN/A
7:58 PM32 °FSunny.1 mph93%29.52 "HgN/A
6:58 PM36 °FSunny.No wind87%29.54 "HgN/A
5:58 PM36 °FSunny.3 mph87%29.55 "HgN/A
Weather by CustomWeather, © 2014

See weather overviewHow to use our weather pages